Regional Weather Roundup
Issued by NWS Jackson, KY

Home | Current Version | Previous Version | Text Only | Print | Product List | Glossary On
Versions: 1 2 3 4 5 6 7 8 9 10 11 12 13 14 15 16 17 18 19 20 21 22 23 24 25 26 27 28 29 30 31 32 33 34 35 36 37 38 39 40 41 42 43 44 45 46 47 48 49 50
000
ASUS43 KJKL 211919
RWRJKL

EAST KENTUCKY HOURLY WEATHER ROUNDUP
NATIONAL WEATHER SERVICE JACKSON KY
300 PM EDT TUE OCT 21 2014

NOTE: "FAIR" INDICATES FEW OR NO CLOUDS BELOW 12,000 FEET WITH
NO SIGNIFICANT WEATHER AND/OR OBSTRUCTIONS TO VISIBILITY.

* THESE REPORTS ARE NOT UNDER NWS QUALITY CONTROL AND MAY NOT
  REPORT WEATHER SUCH AS PRECIPITATION AND FOG.

KYZ079-080-083-085-087-088-110-112-115-119-120-212000
...EASTERN KENTUCKY...

CITY           SKY/WX    TMP DP  RH WIND       PRES   REMARKS
JACKSON        CLOUDY    54  38  54 W6G17     30.01S
LONDON         CLOUDY    61  42  49 NW14G22   30.03F
SOMERSET*      CLOUDY    61  43  51 N12G17    30.04F
MONTICELLO*    PTSUNNY   64  44  48 NW10      30.05F
WILLIAMSBURG*  PTSUNNY   59  43  55 CALM      30.02
MIDDLESBORO*   PTSUNNY   61  42  48 NW10G20   30.01S
HARLAN APT*    CLOUDY    57  39  51 NW14G21   30.00F
HAZARD APT*    CLOUDY    55  43  62 W7        30.01S
BLACK MTN*       N/A     45  39  81 N1          N/A
PIKEVILLE APT* CLOUDY    55  41  58 W12G20    29.99S
BIG SANDY*     CLOUDY    55  41  59 NW8       30.00R
MOREHEAD APT*  CLOUDY    54  39  58 NW7G15    30.05R
ASHLAND*       PTSUNNY   54  43  66 NW8       29.99R
$$

KYZ035-036-041-042-044-050-067-078-099-212000
...CENTRAL KENTUCKY...

CITY           SKY/WX    TMP DP  RH WIND       PRES   REMARKS
MT STERLING*   CLOUDY    54  41  62 N7G16     30.05S HAZE
FLEMING/MASON* CLOUDY    52  39  62 NW9       30.05R
DANVILLE*      CLOUDY    55  43  62 N10       30.06S
RICHMOND*      CLOUDY    55  39  54 NW12G17   30.04S
LEXINGTON      CLOUDY    58  41  53 NW12G18   30.05S
FRANKFORT      CLOUDY    56  40  55 NW9       30.04F
$$

KYZ091>093-OHZ055-061-077-WVZ005-015-034-035-042-212000
...SOUTHERN OHIO/WEST VIRGINIA...

CITY           SKY/WX    TMP DP  RH WIND       PRES   REMARKS
COVINGTON      CLOUDY    55  38  52 N13       30.04S
COLUMBUS       CLOUDY    50  45  83 NW15      29.99R
DAYTON         CLOUDY    52  44  74 N15       30.05S
WILMINGTON     CLOUDY    51  42  71 NW13      30.03S
HUNTINGTON     CLOUDY    53  41  63 NW9       30.00R
CHARLESTON     CLOUDY    52  47  83 W7        29.96S
PINEVILLE*     CLOUDY    55  47  74 MISG      30.00S
BECKLEY        LGT RAIN  46  41  82 NW15G23   29.95R
BLUEFIELD      CLOUDY    52  40  63 NW13G22   29.94F
$$

VAZ002-007-008-TNZ017-027-036-066-071-212000
...SOUTHWEST VIRGINIA/EAST TENNESSEE...

CITY           SKY/WX    TMP DP  RH WIND       PRES   REMARKS
WISE*          CLOUDY    52  37  58 W15G23    30.00S
JONESVILLE*    PTCLDY    59  39  47 NW9       30.01F
ABINGDON*      PTSUNNY   60  40  48 NW10G23   29.96F
BRISTOL        PTSUNNY   62  42  47 W14G22    29.96F
KNOXVILLE      MOSUNNY   66  44  45 W10       29.98F
OAK RIDGE      PTSUNNY   69  43  38 VRB6      30.00F
CROSSVILLE     MOSUNNY   65  42  43 NW12      30.03F
NASHVILLE      MOSUNNY   72  46  39 NW8       30.03F
$$

...KEY TO REMARKS...
VSB - VISIBILITY IN MILES
WCI - WIND CHILL INDEX
HX  - HEAT INDEX

$$



USA.gov is the U.S. government's official web portal to all federal, state and local government web resources and services.